Flag for Israel Weather past 2 weeks in Safed, Israel

Now
73 °F

Scattered clouds.


Feels Like: 76 °F
Forecast: 54 / 66 °F
Wind: 12 mph from Southwest

Location: Beirut Airport

Current Time: May 29, 2015 at 9:18:21 PM

Latest Report: May 29, 2015 at 8:00 PM


Visibility: N/A

Pressure: 29.86 "Hg

Humidity: 65%

Dew point: 61 °F

Location of SafedLocation

Historic Weather in Safed — Graph

°F

Safed temperature yesterday

Maximum temperature yesterday: 84 °F (at 1:00 AM)
Minimum temperature yesterday: 73 °F (at 9:00 PM)
Average temperature yesterday: 79 °F

Past Weeks' High & Low Weather Summary

 TemperatureHumidityPressure
High104 °F (May 19, 1:00 PM)94% (May 20, 2:00 AM)30.21 "Hg (May 20, 2:00 AM)
Low66 °F (May 15, 2:00 AM)10% (May 19, 9:00 AM)29.68 "Hg (May 27, 8:00 PM)
Average77 °F59%29.93 "Hg
* Reported May 14 8:00 PM — May 29 8:00 PM, Safed, Weather by CustomWeather, © 2015

Note: Actual official high and low records may vary slightly from our data, if they occured in-between our weather recording intervals... More about our weather records

Advertising

Safed weather history for previous 24 hours

 ConditionsComfort  
Time TempWeatherWind HumidityBarometerVisibility
8:00 PM
Fri, May 29
73 °FScattered clouds.12 mph65%29.86 "HgN/A
7:00 PM73 °FScattered clouds.13 mph65%29.86 "HgN/A
6:00 PM75 °FScattered clouds.15 mph61%29.86 "HgN/A
5:00 PM77 °FScattered clouds.15 mph61%29.86 "HgN/A
4:00 PM77 °FPartly sunny.14 mph57%29.86 "HgN/A
3:00 PM77 °FPartly sunny.15 mph57%29.89 "HgN/A
2:00 PM79 °FScattered clouds.16 mph54%29.89 "HgN/A
1:00 PM77 °FScattered clouds.16 mph57%29.89 "Hg5 mi
12:00 PM77 °FScattered clouds.16 mph61%29.89 "HgN/A
11:00 AM77 °FScattered clouds.16 mph57%29.86 "HgN/A
10:00 AM77 °FScattered clouds.15 mph54%29.86 "HgN/A
9:00 AM75 °FPartly sunny.17 mph57%29.86 "HgN/A
8:00 AM75 °FPartly sunny.16 mph61%29.83 "HgN/A
7:00 AM73 °FPartly sunny.13 mph65%29.83 "Hg5 mi
6:00 AM72 °FPassing clouds.15 mph65%29.80 "Hg5 mi
5:00 AM72 °FPassing clouds.16 mph73%29.80 "Hg5 mi
4:00 AM72 °FPassing clouds.9 mph69%29.80 "Hg5 mi
3:00 AM70 °FPassing clouds.10 mph73%29.80 "Hg5 mi
2:00 AM72 °FPassing clouds.10 mph65%29.83 "Hg5 mi
1:00 AM72 °FPassing clouds.12 mph69%29.83 "Hg5 mi
12:00 AM72 °FPassing clouds.16 mph73%29.83 "Hg4 mi
11:00 PM
Thu, May 28
73 °FPassing clouds.16 mph69%29.83 "Hg4 mi
10:00 PM73 °FPassing clouds.17 mph74%29.83 "Hg4 mi
9:00 PM73 °FPassing clouds.18 mph78%29.83 "Hg4 mi
Weather by CustomWeather, © 2015

See weather overviewHow to use our weather pages